Tracking 25710 objects as of 5-Jul-2022
HD Live streaming from Space Station
objects crossing your sky now

FENGYUN 1C DEB

Track FENGYUN 1C DEB now!
10-day predictions


NORAD ID: 45527
Int'l Code: 1999-025EYS
Perigee: 810.2 km
Apogee: 901.2 km
Inclination: 98.8 °
Period: 101.9 minutes
Semi major axis: 7226 km
RCS: Unknown
Launch date: May 10, 1999
Source: People's Republic of China (PRC)
Launch site: Taiyaun Space Center, China (TSC)

Note: This is SATELLITE DEBRIS
aabbcc
Your satellite tracking list
Your tracking list is empty




NASA's NSSDC Master Catalog

Two Line Element Set (TLE):
1 45527U 99025EYS 22185.64993596  .00001159  00000-0  63114-3 0  9991
2 45527  98.8280 249.6634 0062977 226.8100 132.7801 14.13163490217637
Source of the keplerian elements: AFSPC